Show Low, AZ

4:06 AM MST on July 28, 2017 (GMT -0700)
Show Low Municipal

Weather History for KSOW - September, 2013

Change the Weather History Date:

Tuesday, September 17, 2013

  Actual Average Record
Temperature  
Mean Temperature 64 °F -  
Max Temperature 75 °F 74 °F 84 °F (1980)
Min Temperature 53 °F 54 °F 28 °F (1968)
Degree Days  
Heating Degree Days 1    
Growing Degree Days 14 (Base 50)    
Moisture  
Dew Point 50 °F    
Average Humidity 58    
Maximum Humidity 82    
Minimum Humidity 36    
Precipitation  
Precipitation 0.00 in - - ()
Sea Level Pressure  
Sea Level Pressure 30.15 in    
Wind  
Wind Speed 11 mph (South)    
Max Wind Speed 18 mph    
Max Gust Speed 24 mph    
Visibility 10 miles    
Events      
Averages and records for this station are not official NWS values.
T = Trace of Precipitation, MM = Missing Value Source: NWS Daily Summary

Daily Weather History Graph

Daily Weather History Graph

Search for Another Location

Airport or City:

Trip Planner

Search our weather history database for the weather conditions in past years. The results will help you decide how hot, cold, wet, or windy it might be!

Date:

Astronomy

Sep. 17, 2013 Rise Set
Actual Time 6:04 AM MST 6:23 PM MST
Civil Twilight 5:39 AM MST 6:48 PM MST
Nautical Twilight 5:10 AM MST 7:17 PM MST
Astronomical Twilight 4:40 AM MST 7:47 PM MST
Moon 5:10 PM MST (9/17) 4:06 AM MST (9/17)
Length of Visible Light 13h 08m
Length of Day
12h 18m
Waxing Gibbous, 96% of the Moon is Illuminated
Sep 17
Waxing Gibbous
Sep 19
Full
Sep 26
Last Quarter
Oct 4
New
Oct 11
First Quarter

Hourly Weather History & Observations

Time (MST) Temp. Dew Point Humidity Pressure Visibility Wind Dir Wind Speed Gust Speed Precip Events Conditions
12:15 AM 57.2 °F 48.2 °F 72% 30.22 in 10.0 mi South 10.4 mph - N/A   Clear
12:35 AM 57.2 °F 48.2 °F 72% 30.22 in 10.0 mi South 11.5 mph - N/A   Clear
12:55 AM 57.2 °F 48.2 °F 72% 30.21 in 10.0 mi South 10.4 mph - N/A   Clear
1:15 AM 57.2 °F 48.2 °F 72% 30.21 in 10.0 mi South 12.7 mph - N/A   Clear
1:35 AM 57.2 °F 48.2 °F 72% 30.21 in 10.0 mi South 15.0 mph - N/A   Clear
2:15 AM 57.2 °F 48.2 °F 72% 30.20 in 10.0 mi South 11.5 mph - N/A   Clear
2:35 AM 55.4 °F 48.2 °F 77% 30.19 in 10.0 mi South 12.7 mph - N/A   Clear
2:55 AM 57.2 °F 50.0 °F 77% 30.19 in 10.0 mi South 11.5 mph - N/A   Clear
3:15 AM 55.4 °F 50.0 °F 82% 30.19 in 10.0 mi South 10.4 mph - N/A   Clear
3:35 AM 55.4 °F 50.0 °F 82% 30.19 in 10.0 mi South 8.1 mph - N/A   Clear
3:55 AM 55.4 °F 50.0 °F 82% 30.19 in 10.0 mi SSE 3.5 mph - N/A   Clear
4:15 AM 55.4 °F 50.0 °F 82% 30.19 in 10.0 mi SSE 6.9 mph - N/A   Clear
4:35 AM 55.4 °F 50.0 °F 82% 30.19 in 10.0 mi South 10.4 mph - N/A   Clear
4:55 AM 55.4 °F 50.0 °F 82% 30.19 in 10.0 mi South 8.1 mph - N/A   Clear
5:15 AM 53.6 °F 48.2 °F 82% 30.19 in 10.0 mi East 3.5 mph - N/A   Clear
5:35 AM 55.4 °F 48.2 °F 77% 30.19 in 10.0 mi Calm Calm - N/A   Clear
5:55 AM 55.4 °F 48.2 °F 77% 30.20 in 10.0 mi SSE 3.5 mph - N/A   Clear
6:15 AM 53.6 °F 48.2 °F 82% 30.20 in 10.0 mi Calm Calm - N/A   Clear
6:35 AM 53.6 °F 48.2 °F 82% 30.20 in 10.0 mi Calm Calm - N/A   Clear
6:55 AM 55.4 °F 50.0 °F 82% 30.21 in 10.0 mi South 6.9 mph - N/A   Clear
7:15 AM 57.2 °F 50.0 °F 77% 30.21 in 10.0 mi South 8.1 mph - N/A   Clear
7:35 AM 60.8 °F 50.0 °F 68% 30.21 in 10.0 mi South 8.1 mph - N/A   Clear
7:55 AM 62.6 °F 50.0 °F 63% 30.21 in 10.0 mi South 8.1 mph - N/A   Clear
8:15 AM 64.4 °F 50.0 °F 59% 30.22 in 10.0 mi South 10.4 mph - N/A   Clear
8:35 AM 66.2 °F 51.8 °F 60% 30.21 in 10.0 mi South 10.4 mph - N/A   Unknown
8:55 AM 68.0 °F 53.6 °F 60% 30.21 in 10.0 mi South 10.4 mph - N/A   Unknown
9:15 AM 68.0 °F 51.8 °F 56% 30.21 in 10.0 mi South 12.7 mph - N/A   Unknown
9:35 AM 69.8 °F 50.0 °F 49% 30.21 in 10.0 mi South 17.3 mph 21.9 mph N/A   Clear
9:55 AM 69.8 °F 51.8 °F 53% 30.21 in 10.0 mi South 17.3 mph 24.2 mph N/A   Clear
10:15 AM 71.6 °F 51.8 °F 50% 30.21 in 10.0 mi South 17.3 mph 21.9 mph N/A   Clear
10:35 AM 71.6 °F 51.8 °F 50% 30.21 in 10.0 mi South 12.7 mph 18.4 mph N/A   Clear
10:55 AM 71.6 °F 51.8 °F 50% 30.20 in 10.0 mi South 13.8 mph - N/A   Clear
11:15 AM 73.4 °F 51.8 °F 47% 30.19 in 10.0 mi South 12.7 mph - N/A   Clear
11:35 AM 73.4 °F 50.0 °F 44% 30.18 in 10.0 mi South 13.8 mph 18.4 mph N/A   Clear
11:55 AM 73.4 °F 50.0 °F 44% 30.18 in 10.0 mi South 16.1 mph 20.7 mph N/A   Unknown
12:15 PM 75.2 °F 50.0 °F 41% 30.16 in 10.0 mi South 13.8 mph - N/A   Unknown
12:35 PM 75.2 °F 51.8 °F 44% 30.16 in 10.0 mi South 15.0 mph 18.4 mph N/A   Unknown
12:55 PM 75.2 °F 50.0 °F 41% 30.15 in 10.0 mi SSW 15.0 mph 21.9 mph N/A   Clear
1:15 PM 75.2 °F 48.2 °F 38% 30.14 in 10.0 mi South 15.0 mph 19.6 mph N/A   Clear
1:35 PM 75.2 °F 50.0 °F 41% 30.13 in 10.0 mi South 12.7 mph 21.9 mph N/A   Clear
1:55 PM 75.2 °F 50.0 °F 41% 30.12 in 10.0 mi South 15.0 mph 20.7 mph N/A   Clear
2:15 PM 75.2 °F 48.2 °F 38% 30.12 in 10.0 mi South 12.7 mph - N/A   Clear
2:35 PM 75.2 °F 50.0 °F 41% 30.11 in 10.0 mi South 17.3 mph - N/A   Clear
2:55 PM 75.2 °F 50.0 °F 41% 30.11 in 10.0 mi South 16.1 mph 20.7 mph N/A   Clear
3:15 PM 75.2 °F 48.2 °F 38% 30.10 in 10.0 mi South 18.4 mph 23.0 mph N/A   Clear
3:35 PM 75.2 °F 48.2 °F 38% 30.09 in 10.0 mi South 18.4 mph 23.0 mph N/A   Clear
3:55 PM 75.2 °F 48.2 °F 38% 30.09 in 10.0 mi South 13.8 mph 20.7 mph N/A   Clear
4:15 PM 75.2 °F 48.2 °F 38% 30.09 in 10.0 mi SSW 18.4 mph - N/A   Clear
4:35 PM 75.2 °F 48.2 °F 38% 30.09 in 10.0 mi SSW 13.8 mph 20.7 mph N/A   Clear
4:55 PM 75.2 °F 46.4 °F 36% 30.09 in 10.0 mi SSW 16.1 mph - N/A   Clear
5:15 PM 73.4 °F 48.2 °F 41% 30.08 in 10.0 mi South 16.1 mph - N/A   Clear
5:35 PM 73.4 °F 46.4 °F 38% 30.08 in 10.0 mi SSW 15.0 mph - N/A   Clear
5:55 PM 71.6 °F 48.2 °F 43% 30.08 in 10.0 mi South 10.4 mph - N/A   Clear
6:15 PM 69.8 °F 48.2 °F 46% 30.08 in 10.0 mi South 9.2 mph - N/A   Clear
6:35 PM 68.0 °F 48.2 °F 49% 30.08 in 10.0 mi SSW 8.1 mph - N/A   Clear
6:55 PM 66.2 °F 48.2 °F 52% 30.08 in 10.0 mi South 9.2 mph - N/A   Clear
7:15 PM 66.2 °F 50.0 °F 56% 30.09 in 10.0 mi South 5.8 mph - N/A   Clear
7:35 PM 64.4 °F 50.0 °F 59% 30.09 in 10.0 mi South 9.2 mph - N/A   Clear
7:55 PM 64.4 °F 50.0 °F 59% 30.09 in 10.0 mi South 12.7 mph - N/A   Clear
8:15 PM 64.4 °F 50.0 °F 59% 30.10 in 10.0 mi South 11.5 mph - N/A   Clear
8:35 PM 62.6 °F 50.0 °F 63% 30.10 in 10.0 mi South 11.5 mph - N/A   Clear
8:55 PM 64.4 °F 48.2 °F 56% 30.11 in 10.0 mi South 11.5 mph - N/A   Unknown
9:35 PM 64.4 °F 50.0 °F 59% 30.11 in 10.0 mi South 12.7 mph - N/A   Unknown
9:55 PM 64.4 °F 50.0 °F 59% 30.11 in 10.0 mi South 12.7 mph - N/A   Clear
10:15 PM 62.6 °F 50.0 °F 63% 30.11 in 10.0 mi South 12.7 mph - N/A   Clear
10:35 PM 64.4 °F 50.0 °F 59% 30.10 in 10.0 mi SSE 12.7 mph - N/A   Clear
10:55 PM 64.4 °F 50.0 °F 59% 30.10 in 10.0 mi South 10.4 mph - N/A   Clear
11:15 PM 64.4 °F 50.0 °F 59% 30.10 in 10.0 mi South 13.8 mph - N/A   Clear
11:35 PM 64.4 °F 50.0 °F 59% 30.10 in 10.0 mi South 13.8 mph 17.3 mph N/A   Clear
11:55 PM 64.4 °F 50.0 °F 59% 30.10 in 10.0 mi South 13.8 mph - N/A   Clear